カタログに戻る

BEIDOU 3M6

運用中ナビゲーションMEO
NORAD 43208·PAYLOAD·🇨🇳 China

打ち上げ Feb 12, 2018 から Xichang Satellite Launch Center

Loading…

次のパス (今後24時間)

TLE

最新Source: CelesTrak SupGP

元期: Sep 14, 2026, 00:00 UTC

1 43208C 18018B   26257.00000000  .00000000  00000+0  00000+0 0  2572
2 43208  56.7323  60.2287 0005246 344.4657 105.7273  1.86231288    15

AllMySatでBEIDOU 3M6をリアルタイム追跡

Download on the App Store